| time (UTC) | temp F | wind direction | speed MPH | gust MPH | rain 1hr in | rain 24hr in | rain mn in | humidity % | barometer mb |
| 20260508174534 | 59 | 211 | 7.0 | 12.0 | 0.00 | 0.01 | 0.01 | 68 | 1010.8 |
| 20260508173028 | 59 | 207 | 8.0 | 13.0 | 0.00 | 0.01 | 0.01 | 68 | 1011.0 |
| 20260508171529 | 58 | 223 | 7.0 | 12.0 | 0.00 | 0.01 | 0.01 | 71 | 1011.2 |
| 20260508170024 | 58 | 262 | 8.0 | 15.0 | 0.00 | 0.01 | 0.01 | 71 | 1011.3 |
| 20260508164519 | 57 | 248 | 10.0 | 15.0 | 0.00 | 0.01 | 0.01 | 75 | 1011.8 |
| 20260508163016 | 56 | 236 | 8.0 | 12.0 | 0.00 | 0.01 | 0.01 | 76 | 1011.9 |
| 20260508161513 | 55 | 237 | 8.0 | 12.0 | 0.00 | 0.01 | 0.01 | 76 | 1012.3 |
| 20260508160016 | 54 | 237 | 5.0 | 13.0 | 0.00 | 0.01 | 0.01 | 76 | 1012.3 |
| 20260508154513 | 54 | 234 | 7.0 | 11.0 | 0.00 | 0.01 | 0.01 | 75 | 1012.2 |
| 20260508153013 | 54 | 263 | 8.0 | 12.0 | 0.00 | 0.01 | 0.01 | 75 | 1012.1 |
| 20260508151511 | 54 | 250 | 7.0 | 12.0 | 0.00 | 0.01 | 0.01 | 75 | 1012.2 |
| 20260508150011 | 55 | 235 | 8.0 | 10.0 | 0.00 | 0.01 | 0.01 | 74 | 1012.2 |
| 20260508144510 | 55 | 214 | 5.0 | 11.0 | 0.00 | 0.01 | 0.01 | 73 | 1012.1 |
| 20260508143008 | 55 | 279 | 4.0 | 11.0 | 0.00 | 0.01 | 0.01 | 74 | 1012.1 |
| 20260508141516 | 54 | 280 | 9.0 | 12.0 | 0.00 | 0.01 | 0.01 | 74 | 1012.1 |
| 20260508140014 | 54 | 281 | 5.0 | 10.0 | 0.00 | 0.01 | 0.01 | 77 | 1012.2 |
| 20260508134502 | 53 | 239 | 9.0 | 13.0 | 0.00 | 0.01 | 0.01 | 77 | 1012.5 |
| 20260508133103 | 53 | 296 | 7.0 | 12.0 | 0.00 | 0.01 | 0.01 | 77 | 1012.4 |
| 20260508131558 | 52 | 281 | 9.0 | 13.0 | 0.00 | 0.01 | 0.01 | 79 | 1012.4 |
| 20260508130105 | 51 | 281 | 9.0 | 14.0 | 0.00 | 0.01 | 0.01 | 79 | 1012.3 |
| 20260508124553 | 50 | 271 | 8.0 | 12.0 | 0.00 | 0.01 | 0.01 | 78 | 1012.3 |
| 20260508123056 | 48 | 268 | 8.0 | 12.0 | 0.00 | 0.01 | 0.01 | 41 | 1012.5 |
| 20260508121552 | 47 | 244 | 8.0 | 12.0 | 0.00 | 0.01 | 0.01 | 41 | 1012.6 |
| 20260508120050 | 47 | 242 | 6.0 | 10.0 | 0.00 | 0.01 | 0.01 | 41 | 1012.3 |
| 20260508114551 | 46 | 280 | 4.0 | 7.0 | 0.00 | 0.01 | 0.01 | 40 | 1012.0 |
| 20260508113046 | 46 | 227 | 3.0 | 8.0 | 0.00 | 0.01 | 0.01 | 40 | 1011.8 |
| 20260508111550 | 45 | 219 | 3.0 | 7.0 | 0.00 | 0.01 | 0.01 | 40 | 1011.8 |
| 20260508110044 | 44 | 222 | 3.0 | 6.0 | 0.00 | 0.01 | 0.01 | 41 | 1011.5 |
| 20260508104547 | 44 | 203 | 2.0 | 4.0 | 0.01 | 0.01 | 0.01 | 42 | 1011.6 |
| 20260508103045 | 44 | 219 | 2.0 | 5.0 | 0.01 | 0.01 | 0.01 | 43 | 1011.6 |
| 20260508101545 | 45 | 202 | 3.0 | 10.0 | 0.01 | 0.01 | 0.01 | 44 | 1011.4 |
| 20260508100035 | 45 | 196 | 5.0 | 8.0 | 0.01 | 0.01 | 0.01 | 49 | 1011.4 |
| 20260508094543 | 47 | 196 | 6.0 | 9.0 | 0.00 | 0.00 | 0.00 | 82 | 1011.3 |
| 20260508093033 | 47 | 218 | 5.0 | 9.0 | 0.00 | 0.00 | 0.00 | 82 | 1011.6 |
| 20260508091546 | 47 | 220 | 6.0 | 11.0 | 0.00 | 0.00 | 0.00 | 82 | 1011.7 |
| 20260508090042 | 48 | 219 | 7.0 | 14.0 | 0.00 | 0.00 | 0.00 | 81 | 1011.6 |
| 20260508084529 | 47 | 200 | 4.0 | 8.0 | 0.00 | 0.00 | 0.00 | 81 | 1011.7 |
| 20260508083028 | 47 | 266 | 4.0 | 9.0 | 0.00 | 0.00 | 0.00 | 81 | 1011.7 |
| 20260508081533 | 47 | 228 | 6.0 | 12.0 | 0.00 | 0.00 | 0.00 | 81 | 1011.7 |
| 20260508080041 | 47 | 242 | 6.0 | 10.0 | 0.00 | 0.00 | 0.00 | 82 | 1011.8 |
| 20260508074525 | 46 | 235 | 4.0 | 8.0 | 0.00 | 0.00 | 0.00 | 81 | 1011.8 |
| 20260508073025 | 45 | 219 | 3.0 | 5.0 | 0.00 | 0.00 | 0.00 | 81 | 1011.8 |
| 20260508071526 | 45 | 211 | 2.0 | 6.0 | 0.00 | 0.00 | 0.00 | 81 | 1011.9 |
| 20260508070029 | 45 | 209 | 3.0 | 6.0 | 0.00 | 0.00 | 0.00 | 82 | 1012.0 |
| 20260508064528 | 46 | 216 | 4.0 | 8.0 | 0.00 | 0.00 | 0.00 | 82 | 1012.1 |
| 20260508063018 | 46 | 221 | 3.0 | 6.0 | 0.00 | 0.00 | 0.00 | 82 | 1012.2 |
| 20260508061520 | 46 | 223 | 3.0 | 8.0 | 0.00 | 0.00 | 0.00 | 82 | 1012.3 |
| 20260508060022 | 47 | 232 | 5.0 | 10.0 | 0.00 | 0.00 | 0.00 | 81 | 1012.3 |
| 20260508054512 | 47 | 229 | 6.0 | 11.0 | 0.00 | 0.00 | 0.00 | 80 | 1012.5 |
| 20260508053010 | 48 | 251 | 7.0 | 14.0 | 0.00 | 0.00 | 0.00 | 79 | 1012.6 |
| 20260508051509 | 48 | 245 | 7.0 | 11.0 | 0.00 | 0.00 | 0.00 | 78 | 1012.4 |
| 20260508050008 | 49 | 258 | 7.0 | 15.0 | 0.00 | 0.00 | 0.00 | 77 | 1012.3 |
| 20260508044506 | 49 | 234 | 9.0 | 18.0 | 0.00 | 0.00 | 0.00 | 73 | 1012.5 |
| 20260508043001 | 48 | 201 | 5.0 | 9.0 | 0.00 | 0.00 | 0.00 | 75 | 1012.5 |
| 20260508041600 | 47 | 200 | 3.0 | 6.0 | 0.00 | 0.00 | 0.00 | 76 | 1012.7 |
| 20260508040101 | 47 | 196 | 3.0 | 4.0 | 0.00 | 0.00 | 0.00 | 76 | 1012.5 |
| 20260508034556 | 48 | 198 | 2.0 | 5.0 | 0.00 | 0.00 | 0.00 | 74 | 1012.6 |
| 20260508033114 | 48 | 220 | 2.0 | 4.0 | 0.00 | 0.00 | 0.00 | 73 | 1012.7 |
| 20260508031555 | 48 | 220 | 2.0 | 5.0 | 0.00 | 0.00 | 0.00 | 72 | 1012.8 |
| 20260508030108 | 49 | 234 | 4.0 | 6.0 | 0.00 | 0.00 | 0.00 | 71 | 1012.9 |
| 20260508024619 | 49 | 227 | 1.0 | 6.0 | 0.00 | 0.00 | 0.00 | 70 | 1013.2 |
| 20260508023054 | 50 | 203 | 3.0 | 7.0 | 0.00 | 0.00 | 0.00 | 66 | 1013.1 |
| 20260508021553 | 50 | 234 | 4.0 | 7.0 | 0.00 | 0.00 | 0.00 | 65 | 1013.1 |
| 20260508020106 | 50 | 238 | 6.0 | 11.0 | 0.00 | 0.00 | 0.00 | 64 | 1013.1 |
| 20260508014559 | 51 | 230 | 6.0 | 12.0 | 0.00 | 0.00 | 0.00 | 63 | 1013.1 |
| 20260508013105 | 51 | 238 | 10.0 | 18.0 | 0.00 | 0.00 | 0.00 | 60 | 1013.1 |
| 20260508011557 | 52 | 245 | 12.0 | 21.0 | 0.00 | 0.00 | 0.00 | 57 | 1012.8 |
| 20260508010104 | 53 | 234 | 11.0 | 18.0 | 0.00 | 0.00 | 0.00 | 55 | 1012.4 |
| 20260508004551 | 53 | 244 | 9.0 | 18.0 | 0.00 | 0.00 | 0.00 | 53 | 1012.4 |
| 20260508003050 | 55 | 260 | 9.0 | 16.0 | 0.00 | 0.00 | 0.00 | 49 | 1012.3 |
| 20260508001554 | 55 | 276 | 7.0 | 12.0 | 0.00 | 0.00 | 0.00 | 44 | 1012.1 |
| 20260508000050 | 55 | 271 | 4.0 | 8.0 | 0.00 | 0.00 | 0.00 | 46 | 1012.0 |
| 20260507234548 | 56 | 278 | 6.0 | 11.0 | 0.00 | 0.00 | 0.00 | 43 | 1012.0 |
| 20260507233046 | 56 | 267 | 4.0 | 9.0 | 0.00 | 0.00 | 0.00 | 41 | 1012.0 |
| 20260507231547 | 57 | 292 | 7.0 | 11.0 | 0.00 | 0.00 | 0.00 | 39 | 1011.8 |
| 20260507230048 | 57 | 288 | 9.0 | 12.0 | 0.00 | 0.00 | 0.00 | 39 | 1012.0 |
| 20260507224545 | 57 | 289 | 7.0 | 12.0 | 0.00 | 0.00 | 0.00 | 39 | 1012.2 |
| 20260507223044 | 58 | 277 | 12.0 | 16.0 | 0.00 | 0.00 | 0.00 | 37 | 1012.2 |
| 20260507221543 | 58 | 284 | 13.0 | 19.0 | 0.00 | 0.00 | 0.00 | 35 | 1012.1 |
| 20260507220144 | 57 | 266 | 8.0 | 14.0 | 0.00 | 0.00 | 0.00 | 39 | 1012.2 |
| 20260507214546 | 57 | 306 | 9.0 | 18.0 | 0.00 | 0.00 | 0.00 | 38 | 1012.1 |
| 20260507213048 | 58 | 309 | 11.0 | 18.0 | 0.00 | 0.00 | 0.00 | 37 | 1011.9 |
| 20260507211548 | 57 | 296 | 12.0 | 21.0 | 0.00 | 0.00 | 0.00 | 38 | 1012.2 |
| 20260507210041 | 58 | 298 | 9.0 | 17.0 | 0.00 | 0.00 | 0.00 | 38 | 1012.1 |
| 20260507204537 | 58 | 284 | 9.0 | 19.0 | 0.00 | 0.00 | 0.00 | 41 | 1012.1 |
| 20260507203035 | 58 | 287 | 14.0 | 21.0 | 0.00 | 0.00 | 0.00 | 40 | 1012.2 |
| 20260507201542 | 58 | 309 | 14.0 | 26.0 | 0.00 | 0.00 | 0.00 | 41 | 1012.2 |
| 20260507200038 | 57 | 283 | 15.0 | 23.0 | 0.00 | 0.00 | 0.00 | 42 | 1012.2 |
| 20260507194532 | 57 | 291 | 17.0 | 24.0 | 0.00 | 0.00 | 0.00 | 38 | 1012.3 |
| 20260507193029 | 57 | 326 | 15.0 | 23.0 | 0.00 | 0.00 | 0.00 | 41 | 1012.3 |
| 20260507191529 | 56 | 309 | 17.0 | 24.0 | 0.00 | 0.00 | 0.00 | 40 | 1012.6 |
| 20260507190028 | 57 | 292 | 14.0 | 24.0 | 0.00 | 0.00 | 0.00 | 39 | 1012.6 |
| 20260507184526 | 57 | 306 | 17.0 | 24.0 | 0.00 | 0.00 | 0.00 | 40 | 1012.6 |
| 20260507183024 | 57 | 288 | 17.0 | 23.0 | 0.00 | 0.00 | 0.00 | 42 | 1012.7 |
| 20260507181523 | 56 | 282 | 14.0 | 23.0 | 0.00 | 0.00 | 0.00 | 43 | 1012.7 |
| 20260507180037 | 56 | 291 | 12.0 | 25.0 | 0.00 | 0.00 | 0.00 | 44 | 1012.8 |